SCP
0 0 0 0 0 0 0 0 0 0 0 0 0 0 0 0 0 0 0 0 0 0 0 0 0 0 0 0 0 0 0 0 0 0 0 0 0 0
0 0 0 0 0 0 0 0 0 0 0 0 0 0 0 0 0 0 0 0 0 0 0 0 0 0 0 0 0 0 0 0 0 0 0 0 0 0
0 0 0 0 0 0 0 0 0 0 0 0 0 0 0 0 0 0 0 0 0 0 0 0 0 0 0 0 0 0 0 0 0 0 0 0 0 0
0 0 0 0 0 0 0 0 0 0 0 0 0 0 0 0 0 0 0 0 0 0 0 0 0 0 0 0 0 0 0 0 0 0 0 0 0 0
0 0 0 0 0 0 0 0 0 0 0 0 0 0 0 0 0 0 0 0 0 0 0 0 0 0 0 0 0 0 0 0 0 0 0 0 0 0
0 0 0 0 0 0 0 0 0 0 0 0 0 0 0 0 0 0 0 0 0 0 0 0 0 0 0 0 0 0 0 0 0 0 0 0 0 0
0 0 0 0 0 0 0 0 0 0 0 0 0 0 0 0 0 0 0 0 0 0 0 0 0 0 0 0 0 0 0 0 0 0 0 0 0 0
0 0 0 0 0 0 0 0 0 0 0 0 0 0 0 0 0 0 0 0 0 0 0 0 0 0 0 0 0 0 0 0 0 0 0 0 0 0
0 0 0 0 0 0 0 0 0 0 0 0 0 0 0 0 0 0 0 0 0 0 0 0 0 0 0 0 0 0 0 0 0 0 0 0 0 0
0 0 0 0 0 0 0 0 0 0 0 0 0 0 0 0 0 0 0 0 0 0 0 0 0 0 0 0 0 0 0 0 0 0 0 0 0 0
0 0 0 0 0 0 0 0 0 0 0 0 0 0 0 0 0 0 0 0 0 0 0 0 0 0 0 0 0 0 0 0 0 0 0 0 0 0
0 0 0 0 0 0 0 0 0 0 0 0 0 0 0 0 0 0 0 0 0 0 0 0 0 0 0 0 0 0 0 0 0 0 0 0 0 0
0 0 0 0 0 0 0 0 0 0 0 0 0 0 0 0 0 0 0 0 0 0 0 0 0 0 0 0 0 0 0 0 0 0 0 0 0 0
0 0 0 0 0 0 0 0 0 0 0 0 0 0 0 0 0 0 0 0 0 0 0 0 0 0 0 0 0 0 0 0 0 0 0 0 0 0
0 0 0 0 0 0 0 0 0 0 0 0 0 0 0 0 0 0 0 0 0 0 0 0 0 0 0 0 0 0 0 0 0 0 0 0 0 0
0 0 0 0 0 0 0 0 0 0 0 0 0 0 0 0 0 0 0 0 0 0 0 0 0 0 0 0 0 0 0 0 0 0 0 0 0 0
0 0 0 0 0 0 0 0 0 0 0 0 0 0 0 0 0 0 0 0 0 0 0 0 0 0 0 0 0 0 0 0 0 0 0 0 0 0
0 0 0 0 0 0 0 0 0 0 0 0 0 0 0 0 0 0 0 0 0 0 0 0 0 0 0 0 0 0 0 0 0 0 0 0 0 0
0 0 0 0 0 0 0 0 0 0 0 0 0 0 0 0 0 0 0 0 0 0 0 0 0 0 0 0 0 0 0 0 0 0 0 0 0 0
0 0 0 0 0 0 0 0 0 0 0 0 0 0 0 0 0 0 0 0 0 0 0 0 0 0 0 0 0 0 0 0 0 0 0 0 0 0
0 0 0 0 0 0 0 0 0 0 0 0 0 0 0 0 0 0 0 0 0 0 0 0 0 0 0 0 0 0 0 0 0 0 0 0 0 0
0 0 0 0 0 0 0 0 0 0 0 0 0 0 0 0 0 0 0 0 0 0 0 0 0 0 0 0 0 0 0 0 0 0 0 0 0 0
0 0 0 0 0 0 0 0 0 0 0 0 0 0 0 0 0 0 0 0 0 0 0 0 0 0 0 0 0 0 0 0 0 0 0 0 0 0
Wind_Speed
8 8 7 6 5 5 5 5 5 5 5 4 3 3 3 3 3 4 4 5 6 7 7 6 7 7 7 7 8 8 9 9 10 10 11 12 12 12
6 8 8 6 5 5 5 5 5 5 5 3 3 2 3 3 4 4 4 5 6 6 6 6 7 7 7 7 8 8 9 9 10 11 11 12 12 12
7 8 9 8 6 5 5 4 5 4 5 3 2 2 3 4 3 4 4 4 4 5 6 7 7 6 6 7 7 8 8 9 9 10 11 11 12 12
8 8 8 7 8 6 5 6 5 5 5 5 3 3 4 4 4 4 3 3 4 4 6 6 6 6 6 6 6 7 8 8 9 10 10 11 11 12
8 8 8 8 9 6 6 6 5 4 4 4 3 2 2 2 3 3 4 3 3 4 5 5 6 6 7 6 6 6 7 7 8 9 9 10 11 12
7 7 8 8 8 8 6 6 5 4 4 3 3 3 2 2 2 2 3 3 3 3 4 4 5 5 6 6 7 6 6 7 8 9 9 9 10 11
6 6 6 6 7 7 5 6 5 4 4 4 3 3 3 2 3 2 3 3 3 3 3 3 3 3 3 4 5 5 6 6 7 8 9 9 10 11
5 5 5 6 6 7 7 7 6 6 6 5 4 5 5 4 3 3 2 3 3 2 3 3 3 3 3 3 4 6 6 7 7 8 9 9 10 10
5 4 3 4 4 5 6 7 7 7 7 6 6 5 4 4 4 4 4 4 4 2 3 3 3 3 3 3 5 6 7 7 7 8 9 10 10 11
4 5 4 4 4 4 4 4 4 4 5 5 5 4 3 3 4 4 3 2 2 2 3 3 3 3 3 4 4 5 6 6 7 8 9 9 10 11
3 3 4 4 5 4 3 4 3 2 2 2 1 1 2 2 2 1 1 2 2 2 2 3 3 4 4 4 3 5 6 6 7 8 9 9 10 10
1 2 3 3 4 5 3 4 4 3 2 3 2 2 2 2 2 2 2 3 2 2 1 2 2 3 3 3 3 3 4 5 7 8 9 9 9 7
1 1 2 3 4 4 3 2 3 2 2 2 2 1 1 0 0 1 1 2 3 3 2 2 2 3 3 3 3 3 4 4 4 5 6 8 9 7
1 1 2 3 3 3 3 4 5 4 2 2 1 1 1 0 1 1 2 2 2 3 3 3 3 3 3 3 3 3 4 4 4 4 5 7 7 8
1 2 2 4 3 3 4 5 4 2 2 2 1 0 0 0 1 1 1 1 1 1 2 3 3 3 3 3 3 3 4 4 4 4 5 5 5 5
2 3 5 5 4 4 4 3 2 2 1 1 1 1 1 0 0 1 1 1 1 1 2 2 2 3 3 3 3 3 3 3 4 5 5 5 5 4
3 3 2 2 2 2 2 2 2 1 1 1 1 1 1 0 1 1 1 1 1 1 1 1 2 2 3 3 3 3 3 4 4 5 5 6 5 4
4 3 2 2 1 2 2 2 1 1 1 1 1 1 0 0 1 1 1 1 0 1 1 1 2 2 2 2 3 4 3 3 4 4 4 5 5 4
3 2 2 1 1 1 1 1 1 1 1 0 0 0 0 0 0 1 1 1 1 1 1 2 2 2 3 3 1 2 4 4 4 4 4 4 5 6
2 2 1 1 1 1 1 1 1 1 1 0 0 0 0 0 0 1 1 1 1 1 1 2 2 2 3 3 3 3 4 4 4 5 5 5 5 7
1 1 1 1 1 1 1 1 1 1 0 0 0 0 0 0 0 1 1 2 2 2 2 2 2 4 3 2 3 3 3 4 6 5 5 5 5 4
1 1 1 1 1 1 1 1 1 1 1 0 0 0 0 0 0 1 1 1 2 2 2 2 3 2 2 3 3 4 5 5 5 7 7 7 5 4
1 1 1 1 1 1 1 1 1 1 0 0 0 0 0 1 1 1 1 1 1 2 2 2 2 2 2 3 3 4 6 6 5 5 4 5 8 11
Wind_Direction
221 221 223 225 223 225 225 222 231 250 253 241 235 232 242 241 229 238 248 252 263 270 274 279 282 280 281 286 289 294 301 305 303 301 301 303 304 304
222 219 222 221 221 221 222 227 232 242 254 246 245 239 235 246 242 251 255 259 253 268 275 275 278 275 275 282 286 291 296 301 306 300 298 300 302 303
224 223 221 216 216 214 217 224 230 233 243 252 252 233 234 241 242 256 259 259 254 258 277 273 275 276 275 279 289 297 298 299 303 304 301 299 301 301
223 223 221 214 214 210 211 220 227 233 234 240 233 233 240 242 255 263 268 268 273 271 277 271 271 272 275 279 288 297 300 300 301 302 301 303 304 303
223 221 221 216 213 209 210 214 220 226 227 229 229 232 243 241 253 263 268 272 280 278 274 272 278 279 273 276 286 295 298 301 299 299 298 300 301 303
228 224 223 221 216 209 210 210 210 215 217 219 220 224 225 230 245 256 265 266 274 274 275 283 286 278 279 285 288 292 299 303 301 300 300 301 301 301
225 224 226 224 227 216 211 209 205 208 209 214 218 223 219 214 235 245 259 272 275 273 286 285 283 278 277 281 293 304 304 304 306 306 303 301 300 300
222 222 221 215 216 212 210 211 210 209 209 213 223 227 231 229 232 232 244 262 265 263 283 284 284 284 289 291 310 307 303 308 309 309 310 310 305 300
219 213 215 209 210 211 204 206 209 214 218 221 222 229 231 225 222 230 236 254 267 277 279 278 282 286 296 295 299 301 304 309 309 309 311 312 313 311
213 211 207 208 205 207 205 210 216 224 232 233 227 228 232 231 231 236 244 262 289 274 282 279 290 292 299 292 293 297 305 308 309 307 307 309 311 308
211 207 205 204 191 187 196 199 199 203 189 188 198 189 187 201 218 209 209 235 269 269 279 276 290 300 290 283 292 301 305 307 307 304 305 308 310 306
195 198 195 190 184 181 190 191 191 187 166 150 151 147 169 171 195 229 223 233 264 266 251 270 281 294 281 275 296 297 298 303 307 306 307 308 310 303
179 193 181 168 174 174 183 190 180 159 148 148 158 157 153 187 264 297 283 254 255 261 247 261 269 273 271 287 291 298 305 308 306 305 306 309 308 305
179 173 155 157 165 152 148 135 129 127 130 137 149 158 150 82 7 359 351 335 305 270 256 264 260 263 270 282 288 298 304 308 311 311 312 313 307 303
118 124 126 132 130 125 120 116 116 115 120 137 151 146 47 54 39 4 359 351 336 317 291 280 267 262 268 269 285 298 303 307 310 313 312 310 307 305
102 110 107 102 98 98 102 99 97 109 122 132 113 89 69 66 18 327 304 294 319 332 335 317 293 271 270 276 277 287 294 296 309 313 310 304 300 297
105 98 91 93 101 95 81 73 77 98 109 110 107 92 77 26 355 355 325 308 285 284 314 335 326 304 282 275 274 277 288 297 302 309 308 304 303 302
115 118 117 121 120 114 106 89 80 80 74 83 103 119 128 358 353 342 322 321 323 304 308 307 304 302 286 263 254 275 289 300 307 305 301 300 302 310
110 115 123 129 123 117 114 114 111 85 72 76 77 114 146 335 324 324 344 345 335 314 313 309 304 302 304 309 293 271 296 307 306 302 302 301 298 305
92 113 124 126 133 135 126 119 111 111 109 119 156 196 224 300 316 318 325 333 319 309 302 306 305 305 303 309 306 302 297 296 302 305 310 308 298 294
101 107 115 122 125 123 117 123 130 137 127 171 208 242 265 317 326 323 325 324 316 304 297 304 316 317 307 294 286 291 303 298 292 293 305 308 308 307
119 141 139 137 141 142 140 142 137 141 138 151 113 3 325 310 285 289 298 302 306 309 317 322 320 312 300 288 295 305 310 317 304 290 281 276 295 307
137 148 148 148 156 159 159 159 157 156 160 164 150 293 290 300 307 300 299 300 306 310 316 318 319 319 312 304 302 306 313 317 317 320 307 295 284 282